Regional Weather Roundup
Issued by NWS

Home | Current Version | Previous Version | Graphics & Text | Print | Product List | Glossary Off
Versions: 1 2 3 4 5 6 7 8 9 10 11 12 13 14 15 16 17 18 19 20 21 22 23 24 25 26 27 28 29 30 31 32 33 34 35 36 37 38 39 40 41 42 43 44 45 46 47 48 49 50

000
ASUS43 KLSX 040007
RWRMO

WEATHER SUMMARY FOR MISSOURI
NATIONAL WEATHER SERVICE SPRINGFIELD MO
700 PM CDT SUN MAY 03 2015

NOTE: "FAIR" INDICATES FEW OR NO CLOUDS BELOW 12,000 FEET WITH NO
       SIGNIFICANT WEATHER AND/OR OBSTRUCTIONS TO VISIBILITY.
       CURRENT SKY AND/OR WEATHER CONDITIONS ARE NOT AVAILABLE FOR
       CHILLICOTHE AND FARMINGTON.

MOZ001>031-035>038-043-044-053-054-040100-
...NORTHERN AND WESTERN MISSOURI...

CITY           SKY/WX    TMP DP  RH WIND       PRES   REMARKS
KANSAS CTY INT PTSUNNY   79  60  52 S17G24    29.82S
6HR MIN TEMP:  78; 6HR MAX TEMP:  83;

KANSAS C DTWN  PTSUNNY   80  58  46 S20G29    29.82S
6HR MIN TEMP:  80; 6HR MAX TEMP:  84;

LEE`S SUMMIT   CLOUDY    77  58  51 S15G22    29.85S
6HR MIN TEMP:  76; 6HR MAX TEMP:  81;

ST JOSEPH      SUNNY     82  59  45 S14       29.79S
6HR MIN TEMP:  80; 6HR MAX TEMP:  85;

CHILLICOTHE      N/A     80  57  45 S16G26    29.84R
6HR MIN TEMP:  77; 6HR MAX TEMP:  84;

KIRKSVILLE     SUNNY     78  57  48 SW16G23   29.86R
6HR MIN TEMP:  78; 6HR MAX TEMP:  82;


$$
MOZ066>068-077>081-088>096-101>105-040100-
...SOUTHWEST MISSOURI...

CITY           SKY/WX    TMP DP  RH WIND       PRES   REMARKS
SPRINGFIELD    CLOUDY    76  53  44 S12       29.93F
6HR MIN TEMP:  76; 6HR MAX TEMP:  82; 6HR PCP: TRACE;

JOPLIN         PTSUNNY   77  57  50 S23       29.92S
6HR MIN TEMP:  77; 6HR MAX TEMP:  81; 6HR PCP: TRACE;


$$
MOZ032>034-039>042-045>050-055>058-069>072-040100-
...CENTRAL MISSOURI...

CITY           SKY/WX    TMP DP  RH WIND       PRES   REMARKS
COLUMBIA       PTSUNNY   78  57  48 S8        29.90F
6HR MIN TEMP:  77; 6HR MAX TEMP:  83;

JEFFERSON CITY PTSUNNY   81  53  37 S9        29.90R
6HR MIN TEMP:  80; 6HR MAX TEMP:  84; 6HR PCP: TRACE;

ROLLA          MOSUNNY   76  53  44 S13       29.93S
6HR MIN TEMP:  76; 6HR MAX TEMP:  82;

SEDALIA        CLOUDY    78  55  44 SW14G24   29.91R
6HR MIN TEMP:  78; 6HR MAX TEMP:  83;

WHITEMAN AFB   CLOUDY    76  59  56 S13       29.87R
WARRENSBURG    CLOUDY    75  57  53 S9        29.87S
OSAGE BEACH    MOSUNNY   81  52  36 SW9       29.92S

$$
MOZ051-052-059>065-040100-
...EAST CENTRAL MISSOURI...

CITY           SKY/WX    TMP DP  RH WIND       PRES   REMARKS
ST LOUIS INTL  CLOUDY    81  46  29 S9G20     29.94S
6HR MIN TEMP:  81; 6HR MAX TEMP:  85;

SPIRIT OF STL  CLOUDY    78  50  37 CALM      29.92S
6HR MIN TEMP:  78; 6HR MAX TEMP:  83;

ST CHARLES     CLOUDY    79  48  33 S13       29.92R
6HR MIN TEMP:  79; 6HR MAX TEMP:  85;


$$
MOZ072>076-082>087-097>100-106>115-040100-
...SOUTH CENTRAL AND SOUTHEAST MISSOURI...

CITY           SKY/WX    TMP DP  RH WIND       PRES   REMARKS
CAPE GIRARDEAU CLEAR     75  48  38 S10       30.00F
6HR MIN TEMP:  75; 6HR MAX TEMP:  82;

FARMINGTON     PTCLDY    75  48  38 S12       30.02F
6HR MIN TEMP:  75; 6HR MAX TEMP:  81;

POPLAR BLUFF   PTCLDY    77  52  41 S7G22     29.99S
6HR MIN TEMP:  77; 6HR MAX TEMP:  81;

WEST PLAINS    MOSUNNY   77  52  41 S9        30.00S
6HR MIN TEMP:  76; 6HR MAX TEMP:  79;


$$


USA.gov is the U.S. government's official web portal to all federal, state and local government web resources and services.